Sparta, IL

6:17 AM CST on December 11, 2019 (GMT -0600)
Sparta Community-Hunter

Weather History for KSAR - November, 2019

Change the Weather History Date:

Wednesday, November 20, 2019

  Actual Average (KBLV) Record (KBLV)
Temperature  
Mean Temperature 45 °F -  
Max Temperature 59 °F 55 °F 73 °F (2003)
Min Temperature 31 °F 35 °F 17 °F (2014)
Degree Days  
Heating Degree Days 20    
Moisture  
Dew Point 38 °F    
Average Humidity 81    
Maximum Humidity 100    
Minimum Humidity 52    
Precipitation  
Precipitation 0.00 in - - ()
Sea Level Pressure  
Sea Level Pressure 30.15 in    
Wind  
Wind Speed 4 mph ()    
Max Wind Speed 12 mph    
Max Gust Speed -    
Visibility 9.2 miles    
Events      
Averages and records for this station are not official NWS values.
T = Trace of Precipitation, MM = Missing Value Source: Averaged Metar Reports

Daily Weather History Graph

Daily Weather History Graph

Search for Another Location

Airport or City:

Astronomy

Nov. 20, 2019 Rise Set
Actual Time 6:44 AM CST 4:43 PM CST
Civil Twilight 6:16 AM CST 5:11 PM CST
Nautical Twilight 5:44 AM CST 5:44 PM CST
Astronomical Twilight 5:12 AM CST 6:15 PM CST
Moon No Moon Rise 1:32 PM CST (11/20)
Length of Visible Light 10h 55m
Length of Day
9h 58m
Last Quarter, 40% of the Moon is Illuminated
Nov 20
Last Quarter
Nov 26
New
Dec 4
First Quarter
Dec 11
Full
Dec 18
Last Quarter

Hourly Weather History & Observations

Time (CST) Temp. Windchill Dew Point Humidity Pressure Visibility Wind Dir Wind Speed Gust Speed Precip Events Conditions
12:15 AM 34.7 °F - 34.5 °F 99% 30.07 in 10.0 mi Calm Calm - N/A   Clear
12:35 AM 33.4 °F - 33.1 °F 99% 30.08 in 10.0 mi Calm Calm - N/A   Clear
12:55 AM 33.3 °F - 33.1 °F 99% 30.09 in 10.0 mi Calm Calm - N/A   Clear
1:15 AM 33.1 °F 30.0 °F 33.1 °F 100% 30.09 in 10.0 mi East 3.5 mph - N/A   Clear
1:35 AM 32.5 °F - 32.5 °F 100% 30.10 in 10.0 mi Calm Calm - N/A   Clear
1:55 AM 32.5 °F - 32.5 °F 100% 30.11 in 10.0 mi Calm Calm - N/A   Clear
2:15 AM 32.0 °F 28.7 °F 31.8 °F 99% 30.12 in 10.0 mi East 3.5 mph - N/A   Clear
2:35 AM 31.3 °F 27.9 °F 30.9 °F 99% 30.12 in 10.0 mi East 3.5 mph - N/A   Clear
2:55 AM 31.3 °F 27.9 °F 31.3 °F 100% 30.13 in 10.0 mi ESE 3.5 mph - N/A   Clear
3:15 AM 31.6 °F 28.3 °F 31.3 °F 99% 30.13 in 10.0 mi East 3.5 mph - N/A   Scattered Clouds
3:35 AM 31.5 °F 26.8 °F 31.5 °F 100% 30.13 in 7.0 mi East 4.6 mph - N/A   Clear
3:55 AM 31.5 °F 28.1 °F 31.5 °F 100% 30.14 in 10.0 mi ESE 3.5 mph - N/A   Clear
4:15 AM 32.2 °F 27.7 °F 32.2 °F 100% 30.14 in 10.0 mi ESE 4.6 mph - N/A   Clear
4:35 AM 31.1 °F 26.4 °F 31.1 °F 100% 30.14 in 7.0 mi ESE 4.6 mph - N/A   Clear
4:55 AM 33.4 °F 29.1 °F 33.4 °F 100% 30.14 in 7.0 mi SE 4.6 mph - N/A   Clear
5:15 AM 35.2 °F 30.3 °F 35.2 °F 100% 30.16 in 7.0 mi SE 5.8 mph - N/A   Clear
5:35 AM 35.1 °F 31.0 °F 35.1 °F 100% 30.16 in 7.0 mi SE 4.6 mph - N/A   Clear
6:00 AM 33.3 °F 27.9 °F 33.3 °F 100% 30.16 in 5.0 mi ESE 5.8 mph - N/A   Clear
6:15 AM 34.9 °F 30.8 °F 34.9 °F 100% 30.17 in 7.0 mi SE 4.6 mph - N/A   Clear
6:35 AM 35.6 °F 31.7 °F 35.6 °F 100% 30.18 in 7.0 mi SE 4.6 mph - N/A   Clear
6:55 AM 35.8 °F 29.4 °F 35.8 °F 100% 30.18 in 5.0 mi ESE 8.1 mph - N/A   Clear
7:15 AM 36.0 °F 30.3 °F 36.0 °F 100% 30.18 in 5.0 mi SE 6.9 mph - N/A   Clear
7:35 AM 36.7 °F 29.9 °F 36.7 °F 100% 30.20 in 7.0 mi SE 9.2 mph - N/A   Clear
8:35 AM 40.6 °F 34.8 °F 39.0 °F 94% 30.20 in 10.0 mi SE 9.2 mph - N/A   Clear
8:55 AM 41.7 °F 35.2 °F 39.4 °F 91% 30.21 in 10.0 mi ESE 11.5 mph - N/A   Clear
9:15 AM 43.3 °F 38.1 °F 40.3 °F 89% 30.22 in 10.0 mi ESE 9.2 mph - N/A   Clear
9:35 AM 45.1 °F 40.3 °F 41.0 °F 85% 30.22 in 10.0 mi ESE 9.2 mph - N/A   Clear
9:55 AM 46.2 °F 41.7 °F 41.2 °F 83% 30.22 in 10.0 mi ESE 9.2 mph - N/A   Clear
10:15 AM 48.0 °F - 41.2 °F 77% 30.22 in 10.0 mi SE 10.4 mph - N/A   Clear
10:35 AM 49.1 °F - 41.9 °F 76% 30.21 in 10.0 mi SE 9.2 mph - N/A   Clear
10:55 AM 51.1 °F - 42.3 °F 72% 30.21 in 10.0 mi SE 8.1 mph - N/A   Clear
11:15 AM 52.0 °F - 42.4 °F 70% 30.20 in 10.0 mi ESE 10.4 mph - N/A   Clear
11:35 AM 53.2 °F - 42.6 °F 67% 30.19 in 10.0 mi SSE 6.9 mph - N/A   Clear
12:15 PM 56.1 °F - 42.8 °F 61% 30.18 in 10.0 mi SE 9.2 mph - N/A   Clear
12:35 PM 57.6 °F - 42.8 °F 58% 30.17 in 10.0 mi SE 6.9 mph - N/A   Clear
12:55 PM 59.2 °F - 41.9 °F 53% 30.16 in 10.0 mi SSE 9.2 mph - N/A   Clear
1:15 PM 59.0 °F - 41.9 °F 53% 30.14 in 10.0 mi SSE 9.2 mph - N/A   Clear
1:35 PM 58.5 °F - 41.7 °F 54% 30.14 in 10.0 mi SSE 9.2 mph - N/A   Clear
1:55 PM 58.5 °F - 41.9 °F 54% 30.13 in 10.0 mi SSE 8.1 mph - N/A   Clear
2:15 PM 59.4 °F - 41.5 °F 52% 30.12 in 10.0 mi SE 11.5 mph - N/A   Clear
2:35 PM 59.4 °F - 41.7 °F 52% 30.11 in 10.0 mi SE 8.1 mph - N/A   Clear
2:55 PM 58.1 °F - 41.4 °F 54% 30.12 in 10.0 mi SSE 6.9 mph - N/A   Clear
3:15 PM 59.7 °F - 42.1 °F 52% 30.11 in 10.0 mi SE 9.2 mph - N/A   Clear
3:35 PM 57.6 °F - 42.3 °F 57% 30.11 in 10.0 mi SE 5.8 mph - N/A   Clear
3:55 PM 57.2 °F - 42.4 °F 58% 30.12 in 10.0 mi SE 5.8 mph - N/A   Clear
4:15 PM 56.5 °F - 42.1 °F 59% 30.12 in 10.0 mi SE 6.9 mph - N/A   Clear
4:35 PM 55.9 °F - 41.5 °F 58% 30.11 in 10.0 mi SE 8.1 mph - N/A   Clear
5:15 PM 53.6 °F - 41.2 °F 63% 30.12 in 10.0 mi SE 9.2 mph - N/A   Clear
5:35 PM 54.0 °F - 41.0 °F 62% 30.13 in 10.0 mi SE 8.1 mph - N/A   Clear
5:55 PM 53.1 °F - 40.5 °F 62% 30.12 in 10.0 mi SE 9.2 mph - N/A   Clear